GFSNW_prec_cloud_045.txt.gz
Cloud_Cover
100 100 81 100 100 100 100 100 100 98 46 100 100 100 0 0 0 0 5 36 100 100 100 65 51 100 100 100 100 92 90 100 91 90 89 25 100 49 99 100 92 36 5 4
100 100 100 100 100 100 100 100 100 89 100 99 78 5 0 0 2 5 53 94 37 100 99 100 100 100 100 100 100 100 100 100 72 100 91 64 96 95 98 100 94 80 98 4
7 100 100 100 100 100 100 100 100 100 100 18 79 2 1 0 4 13 41 100 100 6 9 99 100 100 100 100 100 100 100 100 100 92 89 71 99 32 71 100 98 39 5 88
98 100 100 100 100 100 100 100 92 56 100 78 6 1 0 2 0 1 59 100 100 5 66 100 100 100 100 100 100 100 100 100 100 82 85 100 100 86 94 100 96 93 29 100
100 100 100 100 100 100 100 100 61 65 14 60 10 96 5 0 5 0 1 92 100 100 91 100 100 100 100 100 100 100 100 100 100 19 86 62 79 99 83 100 96 100 100 37
82 100 100 100 100 100 100 100 99 99 53 80 48 23 1 0 23 16 2 3 100 100 100 100 97 100 100 100 100 100 100 100 100 100 100 100 92 100 5 53 20 43 32 5
50 99 98 100 100 100 100 89 85 94 99 100 10 12 5 3 3 12 19 38 100 86 100 100 100 65 100 100 100 100 100 100 100 100 88 100 100 94 51 97 5 5 5 5
100 98 100 100 100 100 100 77 100 100 100 84 76 98 99 40 19 99 100 92 14 97 100 100 94 43 100 100 100 100 100 100 100 100 67 100 100 100 100 84 75 63 5 5
100 100 100 100 100 98 100 86 62 100 100 95 51 100 100 85 53 78 100 100 100 98 100 100 6 8 60 100 100 100 100 100 100 100 48 86 100 100 91 5 99 3 23 78
100 100 100 100 100 98 100 100 100 100 100 100 100 100 99 99 90 41 82 100 100 5 58 97 14 5 83 94 100 100 95 100 100 100 68 98 100 100 100 16 100 5 43 13
42 100 100 100 100 62 100 100 100 100 100 100 100 100 100 89 83 100 5 100 100 98 100 24 65 27 8 100 100 100 100 100 100 100 78 67 100 100 100 100 37 27 100 6
95 100 100 100 100 100 100 100 100 100 100 100 100 100 100 100 97 72 14 99 8 18 93 13 98 95 87 98 100 100 100 100 100 100 100 100 100 100 100 100 100 5 80 34
100 100 100 100 100 100 100 100 100 100 100 100 100 100 100 94 94 28 24 90 100 96 100 100 100 100 100 100 100 100 100 100 100 100 100 100 100 100 100 100 98 98 100 100
100 100 100 100 100 100 100 100 100 100 100 100 100 100 100 18 98 84 72 86 99 100 100 77 48 65 80 100 100 100 99 100 100 100 100 100 100 100 100 100 100 100 100 93
40 36 86 100 100 100 100 100 100 100 100 100 100 98 66 25 92 100 84 90 21 100 78 56 5 67 11 6 100 100 97 88 100 100 100 100 100 100 100 100 100 100 100 100
100 100 100 100 100 100 100 100 100 100 100 100 100 99 100 98 73 98 69 100 49 97 7 5 75 93 6 8 98 100 100 100 100 100 100 100 100 100 100 100 100 100 100 74
100 100 100 100 100 100 100 100 100 100 100 100 93 59 40 64 100 59 61 62 16 3 37 67 55 19 70 100 88 100 100 100 100 100 100 100 100 100 100 100 84 100 100 75
100 100 100 100 100 100 100 100 100 100 100 56 41 25 23 43 100 100 91 81 68 23 100 100 72 47 100 100 100 100 100 100 100 100 100 100 100 100 100 100 100 100 100 100
100 100 100 100 100 100 100 100 100 100 98 79 10 84 100 100 100 99 62 96 61 50 5 12 78 42 100 100 100 100 100 100 100 100 100 100 100 100 100 100 100 100 100 100
100 100 100 100 100 100 100 100 100 76 21 8 24 99 100 100 100 100 100 100 96 59 98 23 80 87 100 100 100 100 100 100 100 100 100 100 100 100 100 100 100 100 100 100
100 100 100 100 100 100 100 100 100 100 89 85 100 100 100 100 100 100 100 96 98 100 93 100 84 99 100 100 100 100 100 100 100 100 100 100 100 79 100 100 100 100 100 100
100 100 100 100 100 100 93 100 100 96 99 100 100 100 100 84 98 100 100 100 100 100 100 100 100 100 100 100 100 100 100 100 100 100 100 100 100 100 100 100 100 100 100 100
31 89 98 71 96 97 99 100 100 100 100 100 100 100 100 100 100 100 99 99 100 100 100 100 100 100 100 100 100 100 100 100 100 100 100 100 100 100 100 100 100 100 100 100
100 100 100 100 100 100 100 100 100 100 100 100 100 100 100 100 100 100 100 100 100 100 100 100 100 100 100 100 100 100 100 100 100 100 100 100 100 100 100 100 100 100 100 100
100 100 100 100 100 93 96 100 100 100 100 100 100 100 100 100 100 100 99 100 100 100 100 100 100 100 100 100 100 100 100 100 100 100 100 100 100 100 100 100 100 100 100 100
100 100 100 100 100 100 100 100 97 100 100 100 100 100 100 100 100 100 100 100 100 100 100 100 100 100 100 100 100 100 100 100 100 100 100 100 100 100 100 100 100 100 100 100
100 100 100 100 100 100 100 100 100 100 100 100 100 100 100 100 100 100 100 100 100 100 100 100 100 100 100 100 100 100 100 100 100 100 100 100 100 100 100 100 100 100 100 100

GFSNW_prec_cloud_048.txt.gz
Cloud_Cover
100 100 100 100 100 100 100 100 100 78 92 99 100 74 3 80 85 45 7 9 100 99 100 100 100 100 100 100 100 100 100 100 100 100 100 92 54 71 19 6 47 95 5 5
100 100 85 95 100 100 100 100 100 100 100 89 100 43 3 3 0 0 0 1 1 67 100 100 100 100 100 100 100 100 100 100 100 99 100 100 100 98 6 5 5 5 12 18
73 71 27 100 100 100 100 100 100 100 100 16 37 8 1 0 2 1 0 0 0 20 98 100 100 100 100 100 100 100 100 100 76 100 100 100 98 100 98 59 92 62 84 12
84 100 99 100 100 100 100 100 99 51 100 90 5 88 2 5 5 6 0 5 0 10 25 100 100 100 100 100 100 100 100 75 100 100 100 100 100 100 100 100 65 24 6 5
100 100 100 100 100 100 100 100 74 63 59 98 81 84 5 10 5 4 0 0 0 3 96 100 100 100 100 97 100 100 100 68 100 100 100 100 100 100 100 100 6 61 10 94
100 100 100 100 100 100 100 100 83 100 16 92 82 22 1 5 16 57 0 0 4 10 1 6 96 73 98 100 99 100 89 10 99 92 100 100 100 100 100 100 100 100 100 56
83 100 100 100 100 100 100 100 84 100 99 35 42 4 5 7 100 30 8 88 1 3 0 90 80 100 88 86 100 83 66 80 100 98 100 100 100 100 96 88 35 100 59 98
91 100 98 75 100 100 100 100 100 100 100 27 32 35 58 73 73 96 12 87 0 0 95 74 100 100 100 100 100 98 100 100 51 100 100 100 100 100 100 92 100 100 100 100
96 100 100 16 5 100 100 100 100 100 100 91 44 100 100 88 100 100 0 4 59 82 82 100 100 100 100 100 92 100 100 93 85 100 100 100 100 100 100 100 100 100 100 100
100 100 100 78 58 87 100 100 100 100 100 100 100 100 100 100 100 53 38 5 97 84 48 99 100 100 100 98 80 100 100 100 85 100 100 100 100 100 100 100 100 100 92 68
100 100 100 100 82 100 100 100 100 100 100 100 87 100 100 98 100 27 33 100 64 100 100 69 100 100 93 96 86 28 100 100 100 99 100 98 100 100 100 100 100 97 5 94
100 100 100 100 100 100 100 100 100 100 100 100 56 99 100 100 100 100 100 72 24 63 100 89 100 100 72 35 74 65 99 100 93 100 25 70 100 100 100 100 100 86 72 96
100 89 98 100 100 100 100 100 100 100 100 91 100 100 100 100 100 100 100 32 2 5 0 20 100 96 18 90 5 99 100 100 53 97 59 88 100 100 100 100 97 100 91 90
96 100 100 100 100 100 100 100 100 100 100 100 100 100 100 100 100 100 100 96 80 92 100 100 100 100 46 5 96 93 100 100 97 32 100 100 100 100 100 100 100 100 100 100
92 99 100 100 100 100 100 100 100 100 100 100 100 100 100 93 47 90 100 97 9 89 96 11 8 94 100 96 25 18 99 40 39 97 100 100 100 100 100 100 100 100 100 100
72 100 100 100 100 100 100 100 100 100 100 100 100 39 24 90 74 36 100 94 28 99 100 100 37 48 95 88 0 59 100 100 100 100 100 100 100 100 100 100 100 100 100 100
100 100 100 100 100 100 100 100 100 100 100 100 85 92 100 100 100 100 100 100 37 45 16 98 16 21 82 65 8 100 100 100 100 100 100 84 91 92 100 100 100 100 100 100
93 100 100 100 100 99 100 100 100 100 100 100 100 100 98 95 83 59 50 84 96 100 100 100 83 60 97 32 67 100 100 100 100 89 100 100 100 100 100 100 100 100 100 100
100 100 100 100 100 100 100 100 100 100 97 100 100 100 76 100 100 84 88 96 64 100 44 67 10 10 43 100 96 100 100 85 83 100 100 97 100 100 100 100 100 100 100 100
100 100 100 100 100 100 100 100 100 100 100 93 79 10 72 48 90 97 88 10 100 97 4 6 76 100 100 100 100 100 100 100 100 100 100 100 100 100 100 100 100 100 100 100
100 100 100 100 100 100 100 100 97 95 60 86 53 14 81 65 81 98 99 100 100 100 83 63 96 95 94 100 100 100 100 100 100 100 100 100 100 100 100 100 100 100 100 100
100 100 100 100 100 100 100 100 100 68 30 31 6 15 26 76 100 100 100 100 100 100 100 97 100 100 100 100 100 100 100 100 100 100 100 100 100 100 100 100 100 100 100 100
100 100 100 100 98 100 100 100 100 100 100 100 100 100 100 100 100 100 100 100 100 100 100 100 100 100 100 100 100 100 100 100 100 100 100 100 100 100 100 100 100 100 100 100
96 97 100 92 99 100 100 100 100 100 100 100 100 100 100 100 100 100 100 100 100 100 100 100 100 100 100 100 100 100 100 100 100 100 100 100 100 100 100 100 100 100 100 100
100 74 94 99 100 100 100 100 100 100 100 100 100 100 100 100 100 100 100 100 100 100 100 100 100 100 100 100 100 100 100 100 100 100 100 100 100 100 100 100 100 100 100 100
100 100 100 98 87 92 100 100 100 88 100 100 99 100 98 100 96 100 100 100 100 100 100 100 100 100 100 100 100 100 100 100 100 100 100 100 100 100 100 100 100 100 100 100
100 100 100 100 100 100 100 100 100 100 100 100 100 100 100 100 98 99 100 100 100 100 100 100 100 100 100 100 100 100 100 100 100 100 100 100 100 100 100 100 100 100 100 100

GFSNW_prec_cloud_051.txt.gz
Cloud_Cover
100 100 100 100 100 100 100 100 100 59 100 100 100 100 90 98 100 100 100 100 35 100 100 100 100 100 100 95 56 90 100 100 100 100 100 100 100 100 100 100 20 96 7 7
100 100 100 100 100 100 100 100 100 100 95 98 100 50 37 41 47 86 99 20 92 100 90 90 100 100 100 100 100 100 100 90 87 99 100 100 100 100 100 100 55 96 100 73
100 100 100 100 100 100 100 100 100 100 100 7 5 95 67 52 24 0 4 90 98 80 98 20 18 88 100 100 100 100 100 100 100 100 100 100 100 100 100 100 77 100 100 89
100 100 100 100 100 100 100 100 100 65 98 100 92 42 5 19 58 6 1 0 86 61 97 100 74 97 100 90 100 100 100 100 100 100 100 100 100 100 100 100 76 100 100 100
100 100 100 100 100 100 100 100 100 91 6 100 100 98 15 5 0 1 0 0 0 5 0 33 100 100 100 100 96 100 100 100 100 100 100 100 100 100 99 100 100 100 100 100
100 100 100 100 100 100 100 100 97 100 100 100 100 71 5 5 9 0 64 2 0 0 0 0 3 36 99 100 100 82 100 100 100 100 100 100 62 87 100 100 100 100 100 100
100 100 100 100 100 100 100 100 100 100 100 34 34 13 68 5 22 3 1 9 0 0 2 4 5 55 5 92 100 100 94 94 100 100 100 84 27 97 100 100 100 100 100 100
100 100 100 100 100 100 100 100 100 100 87 48 6 5 5 5 5 17 5 0 0 0 3 88 5 3 91 64 100 100 100 92 100 93 100 93 43 99 100 100 100 100 100 100
86 99 7 50 100 100 100 100 100 100 100 81 40 77 5 36 9 5 0 0 1 3 0 42 4 14 8 100 91 98 100 100 99 77 71 20 100 100 100 100 100 100 100 100
94 100 100 66 30 70 100 100 100 100 100 100 82 26 5 100 8 5 0 0 5 51 43 14 45 5 34 100 100 100 87 100 100 92 31 44 55 100 100 100 99 100 100 100
100 100 100 100 99 62 100 100 100 100 100 100 100 71 64 13 65 5 13 92 67 25 0 4 10 12 2 91 100 100 100 100 100 100 79 39 5 96 98 92 100 100 100 100
6 19 100 100 100 100 100 100 100 100 100 100 100 100 100 93 100 99 62 25 99 38 2 42 5 7 5 29 100 100 100 100 100 66 6 11 98 95 100 100 100 100 93 91
81 99 95 100 100 100 64 100 100 100 100 100 100 100 100 100 100 94 98 100 100 10 0 5 5 66 34 100 100 100 100 100 100 55 51 100 100 100 100 100 100 100 100 100
100 100 100 100 100 100 100 100 100 100 100 100 100 100 100 100 100 100 99 100 74 4 5 6 34 100 98 100 100 100 100 100 100 94 100 100 100 100 100 100 100 100 100 100
100 100 100 100 100 100 100 100 100 100 100 100 100 100 97 78 20 87 84 100 100 67 98 95 100 100 100 100 100 98 81 10 100 100 100 100 100 89 100 100 100 100 99 93
100 100 100 100 100 100 100 100 100 100 100 100 100 100 71 98 100 100 100 95 100 98 70 100 100 100 100 100 100 100 86 95 100 100 100 100 99 100 100 100 100 100 100 100
100 100 100 100 100 100 100 100 100 100 100 100 100 93 100 100 100 95 65 100 100 100 83 52 88 100 100 86 100 90 30 8 100 64 100 89 45 52 59 100 100 100 100 100
100 100 100 100 100 100 100 100 100 100 100 92 100 100 60 66 22 100 99 87 88 83 100 98 96 100 100 100 100 82 19 97 100 100 100 100 100 100 100 100 98 100 100 100
100 100 100 100 100 100 100 100 100 99 71 100 82 6 46 20 36 31 73 87 68 83 90 100 100 100 100 100 100 100 100 100 100 100 100 100 100 100 100 100 100 100 100 100
100 100 100 100 100 100 99 99 100 100 86 100 100 100 100 100 100 100 100 100 100 100 100 100 100 100 100 100 100 100 100 100 100 100 100 100 100 100 100 100 100 100 100 100
100 97 100 100 100 99 93 100 100 100 100 100 100 100 100 97 100 100 100 100 100 83 100 100 100 100 100 100 100 100 100 100 100 100 100 100 100 100 100 100 100 100 100 100
100 100 100 100 100 100 100 100 100 100 99 100 100 100 100 97 96 94 95 100 98 96 100 100 100 100 100 80 97 100 100 100 100 100 100 100 100 100 100 100 100 100 100 100
97 100 100 100 100 100 100 100 100 100 100 100 100 91 87 98 40 91 100 100 100 100 100 100 100 100 100 84 85 100 100 100 100 100 100 100 100 100 100 100 100 100 100 100
100 100 100 100 100 100 100 100 97 89 100 100 100 100 100 100 100 100 100 100 100 100 100 100 100 100 100 100 99 99 100 100 100 100 100 100 100 100 100 100 100 100 100 100
100 100 96 100 100 100 100 100 100 100 100 100 100 100 100 100 100 100 100 100 100 100 100 100 100 100 100 100 100 100 100 100 100 100 100 100 100 100 100 100 100 100 100 100
5 22 99 98 74 58 100 100 99 95 100 100 100 100 100 100 100 100 100 100 100 100 100 100 100 100 100 100 100 100 100 100 100 100 100 100 100 100 100 100 100 100 100 100
75 97 100 100 100 100 100 100 100 100 100 100 100 100 100 100 100 100 100 100 100 100 100 100 100 100 100 100 100 100 100 100 100 100 100 100 100 100 100 100 100 100 100 100

GFSNW_prec_cloud_054.txt.gz
Cloud_Cover
100 100 100 100 100 100 100 100 100 67 96 100 100 100 100 100 100 100 100 100 100 100 100 83 93 100 100 100 100 100 100 100 100 100 100 94 56 56 32 7 98 100 98 71
100 100 100 100 100 100 100 100 100 100 84 100 100 100 100 100 100 100 100 100 100 100 100 100 100 71 100 96 100 100 100 60 100 100 100 100 100 100 100 99 9 35 100 100
100 100 100 100 100 100 100 100 100 100 100 26 46 100 84 100 100 100 100 100 93 100 100 100 81 67 92 100 100 100 100 100 62 100 100 100 100 100 100 71 6 77 91 100
100 100 100 100 100 100 100 100 100 72 100 100 98 51 38 61 100 61 90 100 100 100 100 100 100 100 92 100 100 100 100 100 99 100 100 100 100 100 100 99 65 45 90 100
100 100 100 100 100 100 100 100 100 100 67 100 100 100 54 62 99 81 5 3 72 100 100 27 98 100 100 100 100 100 100 100 100 100 100 100 100 100 100 100 100 100 81 75
100 100 100 100 100 100 100 100 100 100 99 98 99 97 100 100 98 72 3 0 0 0 8 100 87 69 100 100 100 100 100 100 100 100 100 100 100 100 100 100 100 100 100 100
100 100 100 100 100 100 100 100 100 100 100 29 83 87 100 97 37 46 0 3 2 2 0 0 1 5 12 13 91 100 100 100 100 100 100 100 96 100 100 100 100 100 99 96
100 100 100 100 100 100 100 100 100 100 100 56 39 52 22 100 50 5 5 3 6 20 3 3 0 2 0 0 3 5 100 100 100 99 96 100 100 100 100 100 100 100 100 100
100 100 100 100 100 100 100 100 100 100 100 26 88 23 47 44 26 5 5 18 94 66 5 5 1 5 0 0 0 0 8 100 100 100 100 42 100 100 100 100 100 100 100 100
95 100 100 100 100 100 100 100 100 100 100 10 88 70 41 37 96 100 100 100 21 5 5 5 4 0 0 0 9 55 66 100 100 100 100 66 31 100 100 100 98 100 100 92
100 100 100 100 100 100 100 100 100 100 100 100 98 99 80 72 7 12 88 100 17 6 5 5 1 1 0 0 0 2 23 97 100 100 100 100 89 99 100 92 97 100 100 92
47 61 95 100 100 100 100 100 100 100 100 100 100 82 100 100 100 100 100 100 100 18 5 4 0 0 0 0 0 0 4 63 100 100 100 100 100 100 100 85 60 100 100 88
74 45 56 100 100 100 100 100 100 100 100 100 100 84 85 62 100 91 75 91 93 8 6 5 2 0 0 2 5 11 0 92 100 100 100 100 100 100 100 76 40 100 100 100
24 8 30 42 100 100 100 100 100 90 100 100 99 100 100 100 93 100 100 99 100 97 99 39 41 19 0 0 5 2 10 100 100 100 100 100 100 92 82 93 100 100 100 100
100 96 54 100 92 100 100 100 100 100 100 49 100 100 100 100 100 100 100 93 100 83 99 100 19 97 29 0 66 19 96 100 100 100 100 72 100 4 26 89 88 100 100 100
100 100 100 100 100 100 100 100 100 29 98 100 100 100 89 100 100 100 100 100 100 100 100 100 100 79 16 4 5 68 100 100 100 100 100 87 3 5 20 100 100 100 100 100
100 96 100 100 100 100 100 100 99 100 100 100 100 100 100 100 100 87 77 96 100 5 100 99 100 100 100 100 100 100 100 100 100 100 100 100 58 55 38 100 100 100 100 100
100 100 100 100 100 100 100 100 100 100 100 100 100 100 100 100 82 65 37 93 100 96 58 91 100 100 100 100 100 100 100 100 100 100 48 98 100 100 100 100 100 100 100 100
100 100 100 100 100 99 100 100 100 100 99 92 100 100 100 99 97 100 100 100 100 100 92 100 100 100 100 100 100 100 100 100 100 100 60 84 100 100 100 100 100 100 100 100
100 100 100 100 100 100 100 100 100 100 100 100 100 100 100 63 89 95 100 100 100 100 82 100 100 100 100 100 96 100 100 100 100 100 100 97 100 100 100 100 100 100 100 100
98 95 100 100 100 100 100 100 100 100 100 78 87 99 100 81 97 90 90 100 100 92 100 100 99 100 100 100 100 100 100 100 100 100 100 100 100 100 100 100 100 100 100 100
100 99 95 95 97 89 76 73 57 44 98 99 97 100 100 100 84 93 100 100 100 100 100 98 100 100 99 77 80 90 100 100 100 100 100 100 100 100 100 100 100 100 100 100
100 100 100 100 100 100 94 100 100 100 100 100 100 100 100 100 100 100 100 100 100 100 100 100 100 100 99 100 99 99 100 100 100 100 100 100 100 100 100 100 100 100 100 100
100 100 100 100 100 100 100 100 100 100 100 100 100 100 100 100 92 99 100 100 100 99 100 100 100 100 100 100 100 100 100 100 100 100 100 100 100 100 100 100 100 100 100 100
100 100 100 100 100 100 99 98 100 100 100 100 100 100 100 95 98 100 98 100 98 99 100 100 100 100 100 100 100 100 100 100 100 100 100 100 100 100 100 100 100 100 100 100
100 100 100 100 100 100 97 90 99 100 100 100 100 100 100 100 100 100 100 100 100 100 100 100 100 100 100 100 100 100 100 100 100 100 100 100 100 100 100 100 100 100 100 100
100 100 100 100 100 100 100 100 100 100 100 100 100 100 100 100 100 100 100 100 100 100 100 100 100 100 100 100 100 100 100 100 100 100 100 100 100 100 100 100 100 100 100 100

GFSNW_prec_cloud_057.txt.gz
Cloud_Cover
7 23 100 70 100 100 98 100 100 100 100 100 100 100 100 100 100 100 100 100 98 100 93 100 100 100 100 100 100 100 100 100 100 98 97 50 88 74 100 100 100 94 5 64
85 100 100 100 100 100 100 100 100 100 96 100 100 100 100 100 100 100 100 100 100 100 98 56 99 100 100 100 100 100 100 100 98 100 97 73 47 96 100 100 100 100 15 100
100 100 100 100 100 100 100 100 100 100 100 70 94 100 100 100 100 100 100 100 100 100 100 93 99 100 100 100 100 100 100 80 100 100 100 100 100 100 100 100 100 100 88 97
100 100 100 100 100 100 100 100 100 93 100 100 100 93 98 100 100 100 100 100 100 100 100 100 100 100 100 100 100 100 81 97 97 100 100 100 100 100 100 15 67 49 100 100
100 100 100 100 100 100 100 100 100 100 72 100 100 100 94 100 37 100 100 100 100 100 100 100 100 100 100 100 100 100 100 85 26 100 100 100 100 53 100 100 100 100 100 100
100 100 100 100 100 100 100 100 98 100 100 91 100 100 100 94 91 40 86 100 76 99 100 100 100 100 100 100 100 100 100 100 100 69 100 100 100 54 91 100 100 100 100 100
100 100 100 100 100 100 100 100 100 100 100 99 99 100 78 50 98 83 100 18 5 62 96 62 61 100 100 100 60 100 100 100 100 100 100 92 100 100 87 16 100 100 100 100
100 100 100 100 100 100 100 100 100 100 100 100 100 100 100 97 98 100 100 42 84 86 50 79 5 11 100 100 100 91 75 100 100 100 100 45 73 100 100 100 100 100 100 100
100 100 100 100 100 100 100 100 100 100 100 100 100 100 100 100 100 100 53 100 100 26 63 99 99 4 0 1 1 4 42 99 90 100 100 100 100 74 100 100 98 100 100 100
100 100 100 100 100 100 100 100 100 100 100 100 100 100 100 100 100 67 100 100 45 14 26 94 98 72 4 2 4 78 100 100 100 100 100 76 100 100 100 100 100 100 100 92
100 100 100 100 100 100 100 100 100 100 100 100 100 100 100 100 94 72 100 48 5 82 5 80 93 31 4 0 0 0 26 47 28 64 88 58 96 100 100 100 100 100 100 100
100 99 66 100 100 100 100 100 100 100 100 100 100 98 100 100 100 100 92 28 31 92 28 10 31 5 18 0 1 0 0 1 14 2 2 1 11 78 99 100 100 100 100 100
100 100 100 100 100 100 100 100 100 100 100 100 100 83 93 97 100 100 95 100 100 5 5 5 5 4 4 3 0 4 3 2 0 0 0 0 93 100 50 100 100 100 100 100
99 96 100 100 100 100 100 100 100 100 100 100 100 99 68 100 100 100 100 100 100 100 52 89 44 6 5 3 2 2 8 10 1 1 0 0 98 100 100 100 100 100 100 100
69 98 100 100 100 100 100 100 100 100 100 100 100 100 100 100 100 100 100 100 100 100 100 83 63 9 5 19 58 11 4 68 11 57 13 78 96 100 100 100 100 100 100 100
100 100 100 100 100 100 100 100 100 100 100 100 100 100 100 100 100 100 100 100 100 100 100 100 20 22 99 96 76 86 100 98 99 62 89 70 99 100 100 100 100 100 100 100
100 100 100 100 100 100 100 99 81 100 100 100 100 100 98 95 99 100 100 100 100 100 100 100 100 100 100 100 80 100 100 29 69 84 100 100 100 100 100 100 100 100 100 100
100 100 100 100 100 100 100 100 100 100 100 71 98 100 100 100 100 100 93 100 100 100 94 100 100 100 100 100 100 100 100 96 96 100 100 100 100 100 100 100 100 100 100 100
100 100 100 100 100 100 100 100 100 100 100 100 100 100 100 100 100 51 69 100 100 98 87 96 100 100 100 100 100 100 100 100 100 100 99 100 87 100 100 100 100 100 100 100
100 100 100 100 100 100 100 100 100 100 100 100 100 100 100 38 99 96 100 100 90 99 100 100 100 100 100 100 100 100 100 100 100 100 100 100 100 100 100 100 100 100 100 100
100 100 100 100 100 100 98 100 100 100 100 100 97 82 84 94 92 94 100 100 100 100 100 100 100 100 98 100 100 100 100 100 100 100 100 100 100 100 100 100 100 100 100 100
100 96 100 100 100 100 100 100 100 92 100 100 77 71 28 70 51 98 100 100 100 100 100 100 100 100 86 92 100 100 95 100 100 100 100 100 100 100 100 100 100 100 100 100
100 92 56 93 25 56 72 80 90 59 93 100 100 99 96 96 99 91 100 100 100 100 100 99 98 98 100 100 100 100 100 100 100 100 100 100 100 100 100 100 100 100 100 100
100 100 100 100 100 100 100 98 79 91 100 100 100 100 100 100 100 100 100 100 100 100 100 100 100 100 100 96 100 100 100 100 100 100 100 100 100 100 100 100 100 100 100 100
100 98 100 100 100 100 100 100 100 100 100 100 100 100 100 100 100 100 100 100 100 100 100 100 100 100 100 100 100 100 100 100 100 100 100 100 100 100 100 100 100 100 100 100
100 97 84 82 79 97 100 100 100 100 100 100 100 100 100 100 100 100 100 100 100 100 100 100 100 100 100 100 100 100 100 100 100 100 100 100 100 100 100 100 100 100 100 100
93 92 89 100 100 100 100 100 100 100 100 100 100 100 100 100 94 92 100 100 100 100 100 100 100 100 100 100 100 100 100 100 100 100 100 100 100 100 100 100 100 100 100 100

GFSNW_prec_cloud_063.txt.gz
Cloud_Cover
100 8 5 3 1 4 9 15 96 88 62 100 100 100 100 26 2 100 100 100 100 100 100 100 100 100 100 100 100 100 100 100 100 100 98 100 99 85 96 82 58 93 99 100
100 82 2 5 5 36 22 100 94 60 54 97 89 100 29 89 4 60 100 100 100 100 100 98 100 100 100 100 100 100 100 100 100 100 100 100 100 99 100 96 84 94 94 100
100 91 4 5 5 7 98 100 99 100 100 100 62 97 53 92 5 54 100 100 100 100 100 100 93 100 100 100 100 100 95 100 100 100 100 100 100 100 100 76 75 45 17 94
100 91 5 5 5 13 94 100 97 59 100 100 100 100 8 5 5 79 100 100 100 100 100 100 95 100 100 100 100 100 100 100 100 100 100 100 47 100 100 86 46 5 70 5
85 15 5 5 5 10 100 100 98 99 98 100 79 94 87 5 10 82 100 100 100 100 100 100 100 100 99 100 100 100 100 100 100 100 100 100 100 100 100 100 83 70 99 78
8 5 5 5 5 85 100 100 98 92 18 39 100 100 64 5 53 100 100 100 100 100 100 69 100 100 86 100 100 100 100 100 99 100 100 100 100 100 100 100 100 100 100 100
5 5 5 5 35 100 100 100 100 100 77 45 51 100 5 5 99 100 100 100 100 100 79 81 100 100 100 100 100 100 100 100 100 100 100 100 100 100 100 100 100 86 100 100
80 60 99 100 100 100 100 100 100 81 100 6 60 32 5 98 100 100 100 100 100 100 100 94 100 100 100 100 100 100 100 79 100 100 100 96 100 100 100 100 100 100 100 100
100 100 100 100 100 100 100 100 100 100 85 11 5 91 55 100 100 100 100 100 100 100 97 100 100 100 77 99 100 100 100 99 86 100 98 92 100 100 100 100 100 100 100 100
100 100 100 100 100 100 100 100 100 100 100 16 46 12 100 100 100 100 100 100 100 100 98 100 100 100 100 95 89 100 100 100 100 100 90 60 99 100 100 100 65 37 32 4
100 100 100 100 100 100 100 100 100 100 100 83 94 100 100 100 100 100 100 100 97 99 93 98 100 100 100 100 100 100 100 100 100 100 100 96 100 100 88 91 48 5 14 100
100 100 100 100 100 100 100 100 100 100 100 100 100 100 100 100 100 100 100 100 100 100 85 60 58 42 17 62 14 57 100 100 100 100 96 88 100 100 100 100 100 89 29 94
100 100 100 100 100 100 100 100 100 100 100 100 100 100 100 100 100 100 100 100 96 100 56 100 98 62 5 16 18 18 21 20 14 75 99 100 100 100 100 100 100 100 100 100
100 100 100 100 100 100 100 100 100 100 100 100 100 100 100 100 100 100 100 100 100 91 100 100 97 100 49 12 5 4 1 4 5 5 5 5 5 35 3 63 87 88 99 97
11 97 100 100 100 100 100 100 100 100 100 100 100 100 100 100 100 100 100 100 100 99 86 83 62 97 98 84 17 7 12 10 4 3 98 98 60 10 87 13 1 4 2 4
6 84 100 100 100 100 100 100 100 100 100 100 100 100 100 100 100 100 100 100 100 100 100 100 100 100 83 85 48 5 9 75 98 96 92 100 66 100 100 85 51 23 5 5
76 100 100 100 100 100 100 94 99 100 100 100 100 100 100 100 100 100 100 100 98 100 100 90 90 100 48 43 45 82 54 18 97 100 100 78 100 100 100 99 82 62 52 15
100 100 100 100 100 100 100 100 100 100 100 100 100 100 100 100 100 100 100 100 100 100 100 100 98 89 71 100 100 100 97 32 82 100 100 100 100 100 100 100 100 100 98 87
100 100 100 100 100 100 100 100 100 100 100 97 94 100 100 100 100 100 100 100 100 100 100 100 100 100 99 100 100 100 88 100 100 99 100 100 100 100 100 100 100 100 100 100
100 100 100 100 100 100 100 100 100 100 100 98 88 100 100 100 100 100 100 100 100 100 100 100 100 100 100 100 100 100 100 100 100 99 92 100 100 100 100 100 100 100 100 100
100 100 100 100 100 100 100 100 100 100 100 100 100 100 100 100 100 100 100 97 99 100 100 99 99 100 100 100 99 100 100 100 100 99 95 100 100 100 100 100 100 100 100 100
100 100 100 100 100 100 100 100 100 100 100 100 100 100 100 100 100 100 100 100 99 94 92 100 96 100 100 99 100 100 100 100 100 100 100 100 100 100 100 100 100 100 100 100
100 100 100 100 35 31 68 100 100 99 100 100 100 100 100 100 100 100 100 100 97 87 100 100 100 100 92 100 100 100 100 100 100 100 100 100 100 100 100 100 100 100 100 100
100 100 100 100 100 100 100 100 100 97 100 100 99 75 100 100 74 100 100 98 91 100 100 100 100 100 100 100 100 100 100 100 100 100 100 100 100 100 100 100 100 100 100 100
100 100 100 100 99 95 99 99 98 100 100 100 100 100 69 76 81 93 55 70 94 100 89 100 100 100 100 100 100 100 100 100 100 100 100 100 100 100 100 100 100 100 100 100
100 100 100 100 100 100 100 100 100 100 100 97 100 100 100 100 98 91 99 75 62 97 100 100 99 100 100 100 100 100 100 100 100 100 100 100 100 100 100 100 100 100 100 100
100 100 100 100 100 100 100 100 100 100 100 100 99 92 98 72 85 68 93 98 99 100 100 100 100 100 100 100 100 100 100 100 100 100 100 100 100 100 100 100 100 100 100 100

GFSNW_prec_cloud_066.txt.gz
Cloud_Cover
90 100 72 100 9 19 12 70 99 40 26 85 74 95 71 69 29 3 6 100 100 69 100 70 100 100 100 100 100 100 100 100 100 100 100 100 100 100 100 100 98 41 79 98
100 26 12 100 3 13 47 100 87 13 58 91 71 43 80 12 53 97 29 49 100 94 100 72 100 100 100 100 100 100 100 99 99 100 100 100 100 99 99 100 100 100 100 100
100 100 25 100 32 4 23 85 86 76 70 54 68 100 75 94 5 58 100 78 100 98 89 100 100 100 100 100 100 100 100 100 100 100 100 100 94 100 100 100 100 100 100 100
95 89 50 100 22 24 54 100 85 67 93 73 72 82 94 93 100 29 49 85 42 87 100 100 100 100 100 100 100 100 100 100 100 100 100 100 100 100 100 100 100 100 100 100
73 100 100 100 34 44 96 100 85 12 76 98 97 100 99 75 100 92 31 87 99 100 92 100 100 100 100 100 100 100 100 100 100 100 100 100 100 100 100 100 100 100 96 80
100 99 99 96 33 59 100 99 22 96 34 54 97 99 58 12 100 94 51 86 100 97 81 100 100 100 100 100 100 100 100 100 100 100 100 100 100 100 100 100 100 99 97 77
6 5 5 45 52 5 26 100 69 93 50 100 98 99 96 100 100 91 37 93 100 100 100 66 100 100 100 100 100 100 100 100 100 100 100 100 100 100 100 100 100 100 100 100
97 6 5 1 0 5 13 93 67 73 83 74 98 100 100 100 100 100 96 100 100 100 100 100 100 100 100 100 100 100 100 100 100 100 100 100 100 100 99 100 100 99 59 77
100 100 100 23 3 57 100 100 100 98 99 45 99 100 98 91 100 72 100 100 100 100 100 100 99 100 100 100 100 100 100 100 98 100 100 100 100 100 100 100 100 100 19 93
100 100 100 100 98 100 100 100 100 100 100 58 90 95 78 50 90 100 100 100 100 100 100 100 100 100 100 100 100 100 100 100 100 100 100 100 100 100 100 100 89 97 74 39
100 100 100 100 100 100 100 100 100 100 100 43 58 75 93 74 100 100 100 100 100 100 100 100 100 95 100 100 100 100 100 97 99 100 100 97 100 100 100 60 61 93 86 100
100 100 100 100 100 100 100 100 100 100 100 96 100 100 98 100 100 100 100 100 100 100 100 90 100 100 100 100 100 100 100 100 100 75 87 69 100 100 100 100 96 68 100 99
100 100 100 100 100 100 100 100 100 100 100 100 91 100 100 100 100 100 100 97 100 100 96 100 100 100 100 81 77 99 100 100 100 92 100 100 85 100 100 100 100 100 100 100
100 100 100 100 100 100 100 100 100 100 100 100 95 100 100 100 100 100 100 100 100 100 98 97 100 98 45 100 92 47 95 97 32 75 100 100 100 100 100 100 100 100 100 100
100 100 100 100 100 100 100 100 100 100 100 100 100 100 100 100 100 100 100 100 100 100 100 100 100 97 67 52 86 80 20 42 5 75 65 75 59 96 93 100 100 100 100 100
10 100 100 100 100 100 100 100 100 100 100 100 100 100 100 100 100 100 100 100 100 100 100 100 100 100 79 69 87 81 66 58 34 50 72 95 80 100 100 98 99 100 100 100
12 81 100 100 100 100 100 98 100 100 100 100 100 100 100 100 100 100 100 100 100 100 100 100 94 69 78 93 93 93 64 29 62 63 30 79 100 100 100 100 100 35 60 70
85 14 99 100 100 100 100 100 100 100 100 100 100 100 100 100 100 100 100 100 100 100 100 94 71 70 85 100 100 92 99 89 91 66 86 100 100 100 100 100 100 100 92 90
100 100 100 100 100 100 100 100 100 100 100 100 100 100 100 100 100 100 100 100 100 100 100 100 96 84 100 100 99 98 100 96 99 62 76 100 100 100 100 100 100 99 98 95
100 100 100 100 100 100 100 100 100 100 100 100 100 100 100 100 100 100 100 100 100 100 100 100 97 98 100 100 100 100 99 100 100 87 64 74 97 100 98 94 85 100 100 100
100 100 100 100 100 100 100 100 100 74 96 89 100 100 100 100 100 100 100 95 92 84 96 100 100 100 100 100 100 100 100 100 100 100 100 100 100 100 100 100 100 100 100 100
100 100 100 100 100 100 100 100 98 50 58 100 100 100 100 100 100 100 100 100 90 90 96 99 100 100 100 100 100 100 100 100 100 100 100 100 99 99 100 100 100 100 100 100
100 100 100 100 100 89 94 100 100 100 94 100 100 100 100 100 100 100 100 100 100 78 100 100 100 100 100 100 100 100 100 100 100 100 100 100 100 100 100 100 100 100 100 100
100 100 100 100 100 100 100 100 100 100 100 100 100 100 100 100 100 100 98 99 90 100 100 100 100 100 100 100 100 100 100 100 100 100 100 100 100 100 100 100 100 100 100 100
100 100 100 100 100 100 100 100 100 100 100 100 100 100 100 100 100 100 100 97 99 94 100 100 100 100 100 100 100 100 100 100 100 100 100 100 100 100 100 100 100 100 100 100
100 100 100 100 100 100 100 100 100 100 100 93 96 100 100 100 81 47 98 91 92 100 100 100 100 100 100 100 100 100 100 100 100 100 100 100 100 100 100 100 100 100 100 100
79 100 100 100 100 100 100 100 100 100 86 75 5 36 93 32 48 93 99 100 100 100 100 100 100 100 100 100 100 100 100 100 100 100 100 100 100 100 100 100 100 100 100 100

GFSNW_prec_cloud_069.txt.gz
Cloud_Cover
98 100 100 100 100 100 92 75 100 100 100 100 90 100 97 87 68 13 5 5 6 59 100 100 100 100 100 100 100 100 100 100 100 100 100 100 100 100 100 100 100 100 100 100
85 100 100 87 100 100 90 91 90 43 83 100 97 98 100 98 96 21 100 95 5 51 100 100 100 100 100 100 100 100 100 95 100 100 100 100 100 100 100 100 100 100 100 100
100 100 87 9 26 100 69 99 96 90 22 74 86 99 99 100 100 80 100 89 100 100 100 86 100 100 100 100 100 100 100 100 100 100 100 100 100 100 100 100 100 100 100 100
100 100 100 100 45 100 88 75 62 89 94 90 99 100 99 100 100 100 97 98 100 87 65 53 100 100 100 100 100 100 100 100 100 100 100 100 100 100 100 100 100 100 100 100
99 100 8 37 66 100 98 91 84 29 86 100 100 98 97 99 100 100 100 100 100 100 100 100 100 100 100 100 100 100 100 100 100 100 100 100 100 100 100 100 100 100 100 100
36 90 86 9 5 100 100 63 71 67 84 96 97 89 97 100 100 93 78 100 100 100 100 90 77 100 100 100 100 100 100 100 100 100 100 100 100 100 100 100 100 100 100 100
5 5 53 39 5 100 97 76 62 100 57 100 100 100 100 95 75 93 19 100 99 90 14 36 82 100 100 100 100 100 100 100 100 100 100 100 100 100 100 100 100 100 100 100
96 5 5 20 43 92 100 78 100 100 94 99 100 100 100 63 50 7 98 94 78 48 100 90 98 100 100 100 100 100 100 100 100 100 100 100 100 100 100 100 100 100 100 100
100 55 73 7 5 14 10 75 83 100 100 29 100 100 100 100 72 40 12 100 84 100 100 100 100 100 100 100 100 100 100 100 100 100 100 100 100 100 100 100 100 100 100 100
100 100 100 100 27 3 4 13 84 100 100 59 86 98 100 100 100 83 100 76 100 100 74 100 100 99 100 100 100 100 100 100 100 100 100 100 100 100 100 100 100 100 100 100
99 100 100 100 100 65 100 100 100 100 100 98 100 82 48 68 98 100 98 100 100 100 100 100 100 100 100 100 100 100 100 100 100 100 100 100 100 100 100 100 100 55 82 96
100 100 100 100 100 100 100 97 100 100 100 100 52 5 75 78 38 100 100 100 100 99 100 89 100 100 100 100 100 100 100 100 100 100 100 100 100 100 100 100 100 100 100 100
100 100 100 100 100 100 100 100 100 100 100 100 86 5 29 17 68 100 100 99 100 100 100 100 100 100 100 100 100 100 100 100 100 100 100 100 100 100 100 100 100 100 100 100
100 100 100 100 100 100 100 100 100 100 100 100 58 11 10 5 58 100 100 100 100 100 100 100 100 100 100 100 100 100 100 100 100 100 100 100 100 100 100 100 100 100 100 94
100 100 100 100 100 100 100 100 100 100 100 100 100 72 40 99 100 100 100 100 100 100 100 100 100 100 100 100 100 100 100 100 100 100 100 100 100 100 100 100 100 100 100 95
100 100 100 100 100 100 100 100 100 100 100 100 100 94 100 100 100 100 100 100 100 100 100 100 100 100 100 100 100 100 100 100 100 100 100 100 100 100 100 100 92 90 74 86
85 100 100 100 100 100 100 100 100 100 100 100 100 100 100 100 100 100 100 100 100 100 100 100 100 100 100 99 100 100 100 100 100 100 100 100 100 100 90 88 100 100 96 65
100 100 100 100 100 100 100 100 100 100 100 100 100 100 96 99 100 99 98 100 100 100 100 100 100 92 99 99 100 100 73 62 97 74 60 99 100 100 100 99 88 96 100 82
100 100 100 100 100 100 100 100 100 100 100 100 100 100 100 92 100 99 100 100 100 100 100 91 73 100 100 100 100 100 99 72 89 68 82 100 94 86 90 68 52 98 78 86
100 100 100 100 100 100 100 100 100 100 100 100 100 100 100 100 100 97 100 94 100 100 100 92 100 100 99 89 97 98 100 100 86 73 75 82 92 100 100 90 89 96 99 97
100 100 100 100 100 100 100 100 100 98 100 97 100 100 100 100 100 100 100 100 100 95 87 94 99 100 100 99 99 100 100 99 100 100 100 100 100 100 100 100 100 100 100 100
100 100 100 100 100 100 100 100 87 93 76 100 100 100 100 100 98 100 100 100 100 100 100 86 100 100 100 100 100 100 100 100 100 100 100 100 100 100 100 100 100 100 100 100
100 100 100 100 100 100 74 100 99 100 100 100 100 100 100 100 100 100 100 100 100 100 100 100 100 100 100 100 100 100 100 100 100 100 100 100 100 100 100 100 100 100 100 100
100 99 99 99 100 100 100 100 100 100 100 100 100 100 100 100 100 100 100 100 99 100 100 100 100 100 100 100 100 100 100 100 100 100 100 100 100 100 100 100 100 100 100 100
100 100 100 100 99 100 93 89 98 100 100 100 100 100 100 100 100 100 100 100 100 100 100 100 100 100 100 100 100 100 100 100 100 100 100 100 100 100 100 100 100 100 100 100
100 100 100 100 100 100 100 100 100 100 100 100 100 100 100 100 100 100 100 100 100 100 100 100 100 100 100 100 100 100 100 100 100 100 100 100 100 100 100 100 100 100 100 100
100 100 100 100 100 100 100 100 100 100 100 100 99 100 97 60 98 100 100 100 100 100 100 100 100 100 100 100 100 100 100 100 100 100 100 100 100 100 100 100 100 100 100 100

GFSNW_prec_cloud_072.txt.gz
Cloud_Cover
5 3 5 5 100 95 99 100 97 4 78 98 100 100 98 100 100 62 100 100 100 99 100 93 24 99 14 100 100 100 100 100 96 100 100 100 100 100 100 100 100 100 100 100
5 4 3 6 61 100 96 100 43 90 100 92 78 100 100 100 100 100 100 100 78 74 56 34 36 28 73 100 100 100 99 100 100 100 100 100 100 100 100 100 100 100 100 100
5 23 20 6 69 77 100 98 57 8 94 34 96 76 100 100 100 100 100 91 78 88 46 44 3 93 25 100 100 100 100 100 100 100 100 100 100 100 100 100 100 100 100 100
5 77 98 62 100 100 100 100 37 99 58 72 82 100 100 100 100 100 100 76 22 99 69 100 80 84 100 100 97 100 100 100 100 100 100 100 100 100 100 100 100 100 100 100
15 100 100 100 100 100 100 100 75 100 100 100 97 32 64 100 100 98 100 83 64 46 100 100 100 84 73 100 100 75 100 100 100 100 100 100 100 100 100 100 100 100 100 100
50 100 100 100 100 100 100 92 18 98 30 61 100 97 43 31 69 88 58 100 86 76 98 11 54 100 21 100 100 96 100 100 100 100 100 100 100 100 100 100 100 100 100 100
100 100 57 5 5 7 78 76 100 100 31 100 90 85 100 85 91 58 85 95 68 56 95 5 77 3 3 60 99 100 100 100 100 100 100 99 100 100 100 100 100 100 100 100
100 100 54 4 5 5 54 81 100 98 86 100 100 100 100 100 14 7 31 12 51 69 100 5 2 5 41 56 100 100 100 100 100 100 100 100 100 100 100 100 100 100 100 100
100 100 100 11 5 5 11 10 32 100 97 36 84 100 100 100 100 97 6 15 13 89 12 93 94 55 10 42 100 97 100 100 100 100 100 100 100 100 100 100 100 100 100 100
77 100 100 87 5 5 5 10 28 100 100 71 100 97 98 81 94 97 96 99 90 99 28 60 100 90 100 100 100 100 100 100 100 100 100 100 100 100 100 100 100 100 100 100
96 91 100 92 97 5 10 5 11 41 87 97 61 76 99 86 98 89 65 82 88 94 100 87 93 100 100 100 100 100 100 100 100 100 100 100 100 100 100 100 100 100 100 100
95 100 100 100 100 84 44 18 74 98 91 84 59 8 21 100 100 100 99 100 90 100 99 38 100 99 100 100 100 100 100 100 100 100 100 100 100 100 100 100 100 100 85 100
100 100 100 100 100 100 100 99 100 100 100 100 5 4 21 79 35 100 100 100 100 100 100 100 100 100 100 100 100 100 100 100 100 100 100 100 100 100 100 100 100 100 100 100
100 100 100 100 100 100 100 100 99 100 100 100 76 8 5 57 34 92 100 100 100 92 100 100 100 100 100 99 100 100 100 100 100 100 100 100 100 100 98 100 100 100 100 100
100 100 100 100 100 100 100 100 100 100 100 100 100 22 46 58 4 7 98 78 70 100 100 100 100 100 100 100 100 100 100 100 100 100 100 100 100 100 99 100 100 100 100 100
100 100 100 100 100 100 100 100 100 100 100 100 100 98 5 82 6 100 100 100 100 100 100 100 100 100 100 100 100 100 100 100 100 100 100 100 100 100 100 100 100 100 100 100
98 100 100 100 100 100 100 100 100 100 100 100 100 100 100 34 100 100 100 100 100 100 100 100 100 100 100 100 100 100 100 100 100 100 100 100 100 100 100 100 100 100 100 100
100 100 100 100 100 100 100 100 100 99 100 100 100 100 98 92 92 100 100 100 100 100 100 100 100 100 100 100 100 100 100 100 100 100 100 100 100 100 100 100 100 100 100 100
100 100 100 100 100 100 100 100 100 100 100 91 100 100 100 100 100 100 100 100 100 100 100 100 100 100 100 100 100 100 100 100 100 100 100 100 100 100 100 100 100 100 100 100
100 100 100 100 100 100 100 100 100 100 100 100 100 100 100 100 100 100 100 100 100 100 100 100 100 100 100 100 100 100 100 100 100 100 100 100 100 100 100 100 100 100 100 100
100 100 100 100 100 100 100 100 100 100 100 50 100 100 100 100 100 99 100 100 100 100 98 100 100 100 100 100 100 100 100 100 100 99 100 100 94 100 99 95 99 100 100 100
100 100 100 100 100 100 100 99 100 76 100 98 100 100 100 100 100 100 100 100 88 100 98 100 100 100 100 100 100 100 100 100 100 100 100 100 100 100 100 100 100 100 94 95
100 100 100 100 100 100 100 98 85 100 100 100 100 100 100 100 100 100 100 100 100 96 98 100 100 100 97 100 100 100 100 100 100 100 100 100 100 99 95 97 95 88 90 90
100 95 50 93 98 100 100 100 100 100 100 100 100 100 100 100 100 100 100 100 100 100 100 100 100 100 100 96 99 100 100 100 100 100 100 100 100 100 100 100 88 83 89 97
97 94 94 94 95 100 100 96 100 94 100 100 98 91 98 100 100 100 100 100 100 100 100 100 100 100 100 100 100 98 100 100 100 97 93 98 98 98 100 98 94 87 80 80
100 100 100 100 100 100 100 100 100 99 100 100 100 100 100 100 100 100 100 100 100 100 100 100 100 100 100 100 95 96 91 98 92 100 94 97 100 100 99 100 95 97 90 94
100 100 100 100 86 100 100 99 100 100 100 100 100 100 100 100 100 100 100 100 100 100 100 100 99 100 97 97 100 100 100 100 100 100 100 100 98 99 99 100 100 98 76 90